Bennington, VT

7:57 AM EST on November 18, 2017 (GMT -0500)
Morse State

Weather History for KDDH - February, 2014

Change the Weather History Date:

Friday, February 7, 2014

  Actual Average Record
Temperature  
Mean Temperature 8 °F 23 °F  
Max Temperature 22 °F 33 °F 44 °F (2016)
Min Temperature -6 °F 14 °F -6 °F (2014)
Degree Days  
Heating Degree Days 57 42  
Month to date heating degree days 240 296  
Since 1 July heating degree days 4310 4427  
Cooling Degree Days 0 0  
Month to date cooling degree days 0 0  
Year to date cooling degree days 0 0  
Moisture  
Dew Point 0 °F    
Average Humidity 64    
Maximum Humidity 82    
Minimum Humidity 45    
Precipitation  
Precipitation T in 0.07 in 0.40 in (2017)
Month to date precipitation 0.71 0.46  
Year to date precipitation 3.63 3.21  
Sea Level Pressure  
Sea Level Pressure 30.23 in    
Wind  
Wind Speed 3 mph (WSW)    
Max Wind Speed 14 mph    
Max Gust Speed 21 mph    
Visibility 9 miles    
Events Snow    
T = Trace of Precipitation, MM = Missing Value Source: NWS Daily Summary

Daily Weather History Graph

Daily Weather History Graph

Search for Another Location

Airport or City:

Trip Planner

Search our weather history database for the weather conditions in past years. The results will help you decide how hot, cold, wet, or windy it might be!

Date:

Astronomy

Feb. 07, 2014 Rise Set
Actual Time 7:00 AM EST 5:13 PM EST
Civil Twilight 6:31 AM EST 5:43 PM EST
Nautical Twilight 5:57 AM EST 6:17 PM EST
Astronomical Twilight 5:24 AM EST 6:50 PM EST
Moon 11:21 AM EST (2/7) 1:15 AM EST (2/7)
Length of Visible Light 11h 12m
Length of Day
10h 13m
First Quarter, 59% of the Moon is Illuminated
Feb 7
First Quarter
Feb 14
Full
Feb 22
Last Quarter
Mar 1
New
Mar 8
First Quarter

Hourly Weather History & Observations

Time (EST) Temp. Windchill Dew Point Humidity Pressure Visibility Wind Dir Wind Speed Gust Speed Precip Events Conditions
12:54 AM -0.0 °F -7.9 °F -6.0 °F 76% 30.23 in 10.0 mi South 3.5 mph - N/A   Clear
1:54 AM -2.9 °F - -8.0 °F 79% 30.23 in 10.0 mi Calm Calm - N/A   Clear
2:54 AM -2.0 °F - -7.1 °F 79% 30.21 in 10.0 mi Calm Calm - N/A   Clear
3:54 AM -0.9 °F - -7.1 °F 75% 30.21 in 10.0 mi Calm Calm - N/A   Partly Cloudy
4:54 AM -2.0 °F - -7.1 °F 79% 30.22 in 10.0 mi Calm Calm - N/A   Scattered Clouds
5:54 AM -5.1 °F - -9.9 °F 80% 30.22 in 10.0 mi Calm Calm - N/A   Clear
6:54 AM -5.1 °F - -9.9 °F 80% 30.24 in 10.0 mi Calm Calm - N/A   Clear
7:54 AM -0.9 °F - -6.0 °F 79% 30.25 in 10.0 mi Calm Calm - N/A   Overcast
8:54 AM 8.1 °F - 3.0 °F 80% 30.27 in 6.0 mi Calm Calm - N/A   Haze
9:27 AM 8.1 °F - 3.0 °F 80% 30.22 in 2.5 mi Calm Calm - 0.00 in Snow Light Snow
9:45 AM 10.9 °F - 6.1 °F 81% 30.22 in 4.0 mi Calm Calm - 0.00 in   Haze
9:54 AM 15.1 °F 5.2 °F 8.1 °F 74% 30.28 in 8.0 mi Variable 6.9 mph - 0.00 in   Mostly Cloudy
10:02 AM 15.1 °F 1.1 °F 7.0 °F 70% 30.23 in 10.0 mi West 12.7 mph 18.4 mph N/A   Mostly Cloudy
10:54 AM 18.0 °F 8.7 °F 5.0 °F 57% 30.27 in 10.0 mi Variable 6.9 mph 18.4 mph 0.00 in   Partly Cloudy
11:54 AM 18.0 °F 9.8 °F 5.0 °F 57% 30.25 in 10.0 mi WSW 5.8 mph 18.4 mph 0.00 in   Scattered Clouds
12:54 PM 19.0 °F 11.1 °F 5.0 °F 54% 30.21 in 10.0 mi Variable 5.8 mph - N/A   Partly Cloudy
1:54 PM 21.0 °F - 3.9 °F 48% 30.20 in 10.0 mi Calm Calm - N/A   Clear
2:54 PM 21.0 °F 13.4 °F 3.0 °F 46% 30.19 in 10.0 mi WSW 5.8 mph - N/A   Clear
3:54 PM 21.9 °F - 3.0 °F 44% 30.19 in 10.0 mi Calm Calm - N/A   Partly Cloudy
4:54 PM 21.0 °F 16.2 °F 3.9 °F 48% 30.19 in 10.0 mi NNW 3.5 mph - N/A   Clear
5:54 PM 18.0 °F 12.7 °F 3.9 °F 54% 30.22 in 10.0 mi NW 3.5 mph - N/A   Mostly Cloudy
6:54 PM 12.9 °F 5.2 °F 3.0 °F 65% 30.23 in 10.0 mi South 4.6 mph - N/A   Overcast
7:54 PM 12.9 °F - 3.9 °F 67% 30.23 in 10.0 mi Calm Calm - N/A   Mostly Cloudy
8:54 PM 8.1 °F 1.4 °F -0.0 °F 70% 30.24 in 10.0 mi West 3.5 mph - N/A   Clear
9:54 PM 14.0 °F 3.9 °F 1.0 °F 56% 30.23 in 10.0 mi SW 6.9 mph - N/A   Clear
10:54 PM 10.0 °F 0.4 °F -0.0 °F 64% 30.24 in 10.0 mi SSW 5.8 mph - N/A   Clear
11:54 PM 10.9 °F 0.2 °F -0.9 °F 59% 30.25 in 10.0 mi SSW 6.9 mph - N/A   Clear